Location: Chester
(43.2647°N, 72.5958°W)
Time: 14:02:21
(UTC-05:00)

OTV 5 (USA 277) - Visible Passes

Search period start: 18 February 2019 00:00
Search period end: 28 February 2019 00:00
Orbit: 342 x 346 km, 54.5° (Epoch: 17 February)

Date Brightness Start Highest point End Pass type
(mag) Time Alt. Az. Time Alt. Az. Time Alt. Az.
22 Feb ? 19:19:51 10° SSW 19:20:40 17° SSW 19:20:40 17° SSW visible
23 Feb ? 18:10:15 10° SSE 18:11:39 13° SE 18:12:50 11° ESE visible
23 Feb ? 19:43:22 10° WSW 19:44:19 18° WSW 19:44:19 18° WSW visible
24 Feb ? 18:32:19 10° SSW 18:35:02 40° SE 18:36:21 24° E visible
24 Feb ? 20:07:41 10° W 20:07:49 11° W 20:07:49 11° W visible
25 Feb ? 18:55:48 10° WSW 18:58:39 57° NW 18:59:42 32° NNE visible
26 Feb ? 19:20:04 10° W 19:22:28 23° NNW 19:22:57 22° N visible
27 Feb ? 18:08:14 10° WSW 18:11:04 60° NW 18:13:57 10° NE visible
27 Feb ? 19:44:56 10° NW 19:46:06 13° NNW 19:46:06 13° NNW visible
